User: anonymous   Login
Location: Buckland
(65.9785°N, 161.1281°W)
Time: 12:37:48
(UTC+00:00)
Language:

SPROUT - Orbit

View from above orbital plane
View from above orbital plane
View from above satellite
View from above satellite

Ground track
Ground track

The orbit data is extracted from the following two-line orbital elements,

1 39770U 14029E   21138.09002498  .00001167  00000-0  13202-3 0  9995
2 39770  97.9118 249.3939 0008011 316.0878  43.9709 14.88381289378827
Epoch (UTC): 18 May 2021 02:09:38
Eccentricity: 0.0008011
inclination: 97.9118°
perigee height: 597 km
apogee height: 608 km
right ascension of ascending node: 249.3939°
argument of perigee: 316.0878°
revolutions per day: 14.88381289
mean anomaly at epoch: 43.9709°
orbit number at epoch: 37882

The dashed part of the orbit path shows where the satellite is in the earth's shadow,  

DLR